Location: Aufkirchen
(47.9603°N, 11.3653°E)
Time: 16:32:50
(UTC+01:00)

Transit 4A - Pass Details

Date: 05 December 2020
Orbit: 864 x 980 km, 66.8° (Epoch: 26 January)

Event Time Altitude Azimuth Distance (km) Brightness Sun altitude
Rises 08:00:19 0° 236° (WSW) 3,641 10.8 0.8°
Reaches altitude 10° 08:02:58 10° 243° (WSW) 2,709 10.1 1.2°
Maximum altitude 08:09:02 45° 315° (NW) 1,314 8.4 2.0°
Drops below altitude 10° 08:15:11 10° 27° (NNE) 2,740 10.3 2.8°
Sets 08:17:54 0° 34° (NE) 3,687 11.0 3.2°
